This is the latest recevied weather packets stored in our database for station/object KK6LVQ-13. If no packets are shown the sender has not sent any weather packets the latest 10 day(s).
| Time | Temp. | Humidity | Pressure | Rain* | Wind** | Luminosity | Snow |
|---|---|---|---|---|---|---|---|
| 1777625257 | 7.78° C | 98% | 1019.6 hPa | 0 mm | - | 0 W/m² | - |
| 1777624954 | 8.33° C | 98% | 1019.7 hPa | 0 mm | - | 0 W/m² | - |
| 1777624651 | 7.78° C | 98% | 1019.7 hPa | 0 mm | - | 0 W/m² | - |
| 1777624346 | 8.33° C | 98% | 1019.7 hPa | 0 mm | - | 0 W/m² | - |
| 1777624043 | 8.33° C | 98% | 1019.8 hPa | 0 mm | - | 0 W/m² | - |
| 1777623740 | 8.33° C | 98% | 1019.8 hPa | 0 mm | - | 0 W/m² | - |
| 1777623437 | 8.33° C | 98% | 1019.9 hPa | 0 mm | - | 0 W/m² | - |
| 1777623135 | 8.33° C | 98% | 1019.8 hPa | 0 mm | - | 0 W/m² | - |
| 1777622832 | 8.33° C | 98% | 1019.8 hPa | 0 mm | - | 0 W/m² | - |
| 1777622528 | 8.33° C | 98% | 1019.7 hPa | 0 mm | - | 0 W/m² | - |
| 1777622225 | 8.89° C | 98% | 1019.9 hPa | 0 mm | - | 0 W/m² | - |
| 1777621922 | 8.89° C | 97% | 1019.8 hPa | 0 mm | - | 0 W/m² | - |
| 1777621616 | 8.33° C | 97% | 1019.8 hPa | 0 mm | - | 0 W/m² | - |
| 1777621314 | 8.89° C | 97% | 1019.7 hPa | 0 mm | - | 0 W/m² | - |
| 1777621009 | 8.89° C | 97% | 1019.9 hPa | 0 mm | - | 0 W/m² | - |
| 1777620705 | 8.89° C | 97% | 1019.8 hPa | 0 mm | - | 0 W/m² | - |
| 1777620401 | 8.89° C | 97% | 1019.8 hPa | 0 mm | - | 0 W/m² | - |
| 1777620099 | 8.89° C | 97% | 1019.8 hPa | 0 mm | - | 0 W/m² | - |
| 1777619795 | 8.89° C | 97% | 1020 hPa | 0 mm | - | 0 W/m² | - |
| 1777619490 | 8.89° C | 97% | 1020 hPa | 0 mm | - | 0 W/m² | - |
| 1777619186 | 9.44° C | 96% | 1019.8 hPa | 0 mm | - | 0 W/m² | - |
| 1777618880 | 9.44° C | 96% | 1019.8 hPa | 0 mm | - | 0 W/m² | - |
| 1777618580 | 9.44° C | 96% | 1019.8 hPa | 0 mm | - | 0 W/m² | - |
| 1777618276 | 9.44° C | 96% | 1019.8 hPa | 0 mm | - | 0 W/m² | - |
| 1777617974 | 9.44° C | 96% | 1020 hPa | 0 mm | - | 0 W/m² | - |
* Rain latest hour (hover to see other rain measurements)
** Current wind speed in m/s (hover to see current wind gust speed)